Location: Penton Mewsey
(51.2167°N, 1.5167°W)
Time: 18:48:30
(UTC+00:00)

Okean 1-7 Rocket - Pass Details

Date: 30 March 2020
Orbit: 617 x 648 km, 82.5° (Epoch: 04 June)

Event Time Altitude Azimuth Distance (km) Brightness Sun altitude
Rises 19:12:52 0° 348° (NNW) 2,916 7.4 -6.4°
Reaches altitude 10° 19:15:07 10° 348° (NNW) 2,001 6.6 -6.7°
Maximum altitude 19:19:32 80° 262° (W) 636 3.7 -7.4°
Drops below altitude 10° 19:23:55 10° 176° (S) 1,978 5.9 -8.1°
Sets 19:26:07 0° 175° (S) 2,879 6.8 -8.4°
